Voltar ao catálogo

ATLAS 55E R/B

AtivoHEO
NORAD 16137·ROCKET BODY·🇺🇸 United States

Lançado Oct 9, 1985 de Vandenberg Space Force Base

Loading…

Próximas Passagens (próximas 24 horas)

TLE

AtualizadoSource: Space-Track

Época: Sep 14, 2026, 09:56 UTC

1 16137U 85093B   26257.41433431 -.00000030  00000-0  00000-0 0  9992
2 16137  64.3333  49.5293 5411904 326.1342   8.8067  3.90967533584550

Acompanhe ATLAS 55E R/B em tempo real com AllMySat

Download on the App Store